Regional Weather Roundup
Issued by NWS Cleveland, OH

Home | Current Version | Previous Version | Graphics & Text | Print | Product List | Glossary On
Versions: 1 2 3 4 5 6 7 8 9 10 11 12 13 14 15 16 17 18 19 20 21 22 23 24 25 26 27 28 29 30 31 32 33 34 35 36 37 38 39 40 41 42 43 44 45 46 47 48 49 50
000
ASUS41 KCLE 261610
RWRCLE
OHIO REGIONAL WEATHER ROUNDUP
NATIONAL WEATHER SERVICE WILMINGTON, OH
1100 AM EST MON JAN 26 2015

NOTE: "FAIR" INDICATES FEW OR NO CLOUDS BELOW 12,000 FEET WITH NO
SIGNIFICANT WEATHER AND/OR OBSTRUCTIONS TO VISIBILITY.

OHZ001>008-015>018-024>027-034-035-043-044-261700-
   NORTHWEST OHIO

CITY           SKY/WX    TMP DP  RH WIND       PRES   REMARKS
DEFIANCE       SUNNY     17   7  64 NE5       29.96S WCI  10
FINDLAY        LGT SNOW  17  10  74 N9        29.92R WCI   6
TOLEDO EXPRESS SUNNY     17   8  67 N3        29.94S
TOLEDO EXEC    MOSUNNY   18   8  65 N9        29.96R WCI   7
LIMA           LGT SNOW  15   8  73 N8        29.92R WCI   4
$$

OHZ009>014-019>023-028>033-038-089-261700-
   NORTHEAST OHIO

CITY           SKY/WX    TMP DP  RH WIND       PRES   REMARKS
CLE-HOPKINS    CLOUDY    21  16  81 N20       29.88R WCI   6
CLE-LAKEFRONT  CLOUDY    23  17  78 NE17      29.86R WCI   9
CUY CO. ARPT   PTSUNNY   23  18  80 NE12      29.85R WCI  12
LORAIN-ELYRIA  CLOUDY    20  16  84 NE16      29.87R WCI   6
ASHTABULA      CLOUDY    20  14  77 NE7       29.84R WCI  11
AKRON-CANTON   LGT SNOW  22  16  78 N9        29.78R VSB 1   WCI  12
WOOSTER        PTSUNNY   21  16  81 N14       29.81R WCI   8
MANSFIELD      CLOUDY    19  14  81 N16       29.82R WCI   4
YOUNGSTOWN     LGT SNOW  20  15  81 N9        29.78R FOG     WCI   9
$$

OHZ042-051>053-060>062-070>072-077>081-261700-
  SOUTHWEST OHIO

CITY           SKY/WX    TMP DP  RH WIND       PRES   REMARKS
CINC-COVINGTON PTSUNNY   22  15  75 NW15      29.93R WCI   9
CINC-LUNKEN    CLOUDY    22  16  78 N13       29.96R WCI  10
HAMILTON       PTSUNNY   21  14  74 NW8       29.96R WCI  11
DAYTON         PTSUNNY   15   8  73 N16       29.92R WCI  -1
WRIGHT-PAT AFB CLOUDY    19  13  78 NW10      29.91R WCI   8
DAYTON GENERAL CLOUDY    19  13  77 NW12      29.90R WCI   7
WILMINGTON     MOSUNNY   20  13  74 NW16      29.88R WCI   6
$$

OHZ036-037-039>041-045>050-054>059-063>069-073>076-082>088-261700-
  CENTRAL AND SOUTHEAST OHIO

CITY           SKY/WX    TMP DP  RH WIND       PRES   REMARKS
COLUMBUS       CLOUDY    21  16  81 N13       29.84R WCI   9
OSU AIRPORT    CLOUDY    19  14  81 NW12      29.85R WCI   7
BOLTON FIELD   PTSUNNY   19  14  79 NW15      29.86R WCI   5
RICKENBACK AFB CLOUDY    22  18  83 N14       29.85R WCI   9
NEWARK         PTSUNNY   24  18  77 N9        29.81R WCI  14
MARION         CLOUDY    18  13  80 N16       29.87R WCI   3
LANCASTER      CLOUDY    23  18  81 NW10      29.83R WCI  12
ZANESVILLE     LGT SNOW  22  18  85 N7        29.79R VSB 1   WCI  13
NEW PHILLY     LGT SNOW  24  19  81 N8        29.80R VSB 1   WCI  15
$$



USA.gov is the U.S. government's official web portal to all federal, state and local government web resources and services.